Location: *
(47.6569°N, 7.4256°E)
Time: 23:24:16
(UTC+00:00)

Cosmos 1603 - Pass Details

Date: 14 December 2019
Orbit: 830 x 860 km, 71.0° (Epoch: 22 January)

Event Time Altitude Azimuth Distance (km) Brightness Sun altitude
Rises 18:15:26 0° 203° (SSW) 3,405 7.3 -25.3°
Reaches altitude 10° 18:17:52 10° 203° (SSW) 2,477 6.5 -25.7°
Maximum altitude 18:23:34 84° 117° (ESE) 868 3.6 -26.6°
Enters shadow 18:24:03 75° 48° (NE) 890 3.6 -26.7°
